Indianapolis, IN

8:45 PM EDT on October 17, 2017 (GMT -0400)
Indianapolis Terry

Weather History for KTYQ - December, 2013

Change the Weather History Date:

Friday, December 20, 2013

  Actual Average (KEYE) Record (KEYE)
Temperature  
Mean Temperature 54 °F -  
Max Temperature 59 °F 33 °F 60 °F (2013)
Min Temperature 48 °F 20 °F 1 °F (2000)
Degree Days  
Heating Degree Days 12    
Growing Degree Days 4 (Base 50)    
Moisture  
Dew Point 50 °F    
Average Humidity 82    
Maximum Humidity 89    
Minimum Humidity 73    
Precipitation  
Precipitation 0.15 in - - ()
Sea Level Pressure  
Sea Level Pressure 29.80 in    
Wind  
Wind Speed 14 mph (SSW)    
Max Wind Speed 20 mph    
Max Gust Speed 28 mph    
Visibility 8 miles    
Events Rain    
Averages and records for this station are not official NWS values.
T = Trace of Precipitation, MM = Missing Value Source: NWS Daily Summary

Daily Weather History Graph

Daily Weather History Graph

Search for Another Location

Airport or City:

Trip Planner

Search our weather history database for the weather conditions in past years. The results will help you decide how hot, cold, wet, or windy it might be!

Date:

Astronomy

Dec. 20, 2013 Rise Set
Actual Time 8:03 AM EST 5:22 PM EST
Civil Twilight 7:32 AM EST 5:53 PM EST
Nautical Twilight 6:58 AM EST 6:27 PM EST
Astronomical Twilight 6:25 AM EST 7:00 PM EST
Moon 8:42 PM EST (12/20) 9:56 AM EST (12/20)
Length of Visible Light 10h 20m
Length of Day
9h 19m
Waning Gibbous, 90% of the Moon is Illuminated
Dec 20
Waning Gibbous
Dec 25
Last Quarter
Jan 1
New
Jan 7
First Quarter
Jan 15
Full

Hourly Weather History & Observations

Time (EST) Temp. Dew Point Humidity Pressure Visibility Wind Dir Wind Speed Gust Speed Precip Events Conditions
12:15 AM 48.6 °F 41.2 °F 76% 29.87 in 10.0 mi South 9.2 mph - N/A   Overcast
12:35 AM 49.1 °F 41.7 °F 76% 29.87 in 10.0 mi South 9.2 mph - N/A   Overcast
12:55 AM 49.5 °F 42.3 °F 76% 29.86 in 10.0 mi South 8.1 mph - N/A   Overcast
1:15 AM 49.6 °F 42.6 °F 77% 29.86 in 10.0 mi South 9.2 mph - N/A   Overcast
1:35 AM 50.9 °F 43.9 °F 77% 29.85 in 10.0 mi South 10.4 mph - N/A   Overcast
1:55 AM 51.4 °F 44.8 °F 78% 29.85 in 10.0 mi SSW 12.7 mph 20.7 mph N/A   Light Drizzle
2:15 AM 52.2 °F 45.0 °F 76% 29.84 in 10.0 mi SSW 10.4 mph - N/A   Overcast
2:35 AM 52.7 °F 45.1 °F 75% 29.84 in 10.0 mi SSW 19.6 mph 25.3 mph N/A Rain Light Rain
2:55 AM 53.2 °F 45.3 °F 74% 29.83 in 10.0 mi SSW 16.1 mph 23.0 mph N/A   Overcast
3:15 AM 53.6 °F 45.1 °F 73% 29.83 in 10.0 mi SSW 17.3 mph 24.2 mph N/A Rain Light Rain
3:35 AM 53.2 °F 45.7 °F 76% 29.83 in 10.0 mi SSW 17.3 mph 25.3 mph N/A   Drizzle
3:55 AM 53.2 °F 45.9 °F 76% 29.83 in 10.0 mi SSW 16.1 mph 25.3 mph N/A Rain Light Rain
4:15 AM 53.8 °F 45.7 °F 74% 29.83 in 10.0 mi SSW 17.3 mph 27.6 mph N/A   Overcast
4:35 AM 53.8 °F 45.7 °F 74% 29.83 in 10.0 mi SSW 15.0 mph 24.2 mph N/A   Overcast
4:55 AM 53.8 °F 45.9 °F 75% 29.81 in 10.0 mi SSW 18.4 mph 26.5 mph N/A   Overcast
5:15 AM 54.1 °F 46.0 °F 74% 29.81 in 10.0 mi SSW 16.1 mph 21.9 mph N/A   Overcast
5:35 AM 54.5 °F 46.0 °F 73% 29.80 in 10.0 mi SSW 15.0 mph 25.3 mph N/A   Overcast
5:55 AM 54.5 °F 46.4 °F 74% 29.80 in 10.0 mi SSW 18.4 mph 27.6 mph N/A Rain Rain
6:15 AM 54.9 °F 46.6 °F 74% 29.81 in 10.0 mi SW 18.4 mph 25.3 mph N/A   Overcast
6:35 AM 54.7 °F 46.6 °F 74% 29.81 in 10.0 mi SSW 15.0 mph 25.3 mph N/A   Overcast
6:55 AM 54.9 °F 46.9 °F 75% 29.81 in 10.0 mi SSW 13.8 mph 23.0 mph N/A   Overcast
7:15 AM 54.7 °F 46.9 °F 75% 29.80 in 10.0 mi SSW 13.8 mph 23.0 mph N/A   Overcast
7:35 AM 54.7 °F 46.9 °F 75% 29.80 in 10.0 mi SSW 16.1 mph 20.7 mph N/A   Overcast
7:55 AM 54.1 °F 47.5 °F 78% 29.81 in 10.0 mi SW 11.5 mph 20.7 mph 0.02 in Rain Light Rain
8:15 AM 53.6 °F 47.7 °F 80% 29.81 in 10.0 mi SW 15.0 mph - 0.01 in   Overcast
8:35 AM 53.6 °F 48.2 °F 82% 29.81 in 10.0 mi SSW 15.0 mph - 0.02 in Rain Light Rain
8:55 AM 53.8 °F 48.2 °F 81% 29.81 in 10.0 mi SSW 12.7 mph 19.6 mph 0.02 in   Overcast
9:15 AM 53.6 °F 48.4 °F 82% 29.82 in 10.0 mi SW 12.7 mph 19.6 mph 0.01 in   Overcast
9:35 AM 53.8 °F 48.4 °F 82% 29.82 in 7.0 mi SSW 15.0 mph 24.2 mph 0.02 in Rain Rain
9:55 AM 53.6 °F 48.7 °F 84% 29.83 in 4.0 mi SSW 13.8 mph 20.7 mph 0.03 in Rain Rain
10:15 AM 53.6 °F 49.3 °F 85% 29.82 in 10.0 mi SSW 17.3 mph 23.0 mph 0.01 in Rain Light Rain
10:35 AM 53.6 °F 49.3 °F 85% 29.83 in 10.0 mi SSW 13.8 mph 24.2 mph 0.01 in   Overcast
10:55 AM 53.6 °F 49.5 °F 86% 29.82 in 7.0 mi SSW 13.8 mph 17.3 mph 0.02 in Rain Rain
11:15 AM 54.0 °F 50.0 °F 86% 29.82 in 4.0 mi SSW 15.0 mph 21.9 mph N/A Rain Rain
11:35 AM 54.1 °F 50.2 °F 86% 29.81 in 7.0 mi SSW 17.3 mph 23.0 mph 0.01 in   Overcast
11:55 AM 54.5 °F 50.5 °F 86% 29.81 in 7.0 mi SSW 17.3 mph 24.2 mph 0.02 in   Overcast
12:15 PM 54.5 °F 50.5 °F 86% 29.80 in 7.0 mi SSW 19.6 mph 25.3 mph N/A   Overcast
12:35 PM 54.5 °F 50.5 °F 86% 29.80 in 2.5 mi SSW 15.0 mph 25.3 mph N/A   Overcast
12:55 PM 54.5 °F 50.9 °F 88% 29.78 in 2.0 mi SSW 17.3 mph 23.0 mph 0.01 in   Overcast
1:15 PM 54.7 °F 51.1 °F 88% 29.78 in 2.5 mi SW 17.3 mph 25.3 mph N/A   Overcast
1:35 PM 54.9 °F 51.4 °F 88% 29.78 in 2.5 mi SSW 19.6 mph 24.2 mph N/A   Overcast
1:55 PM 55.0 °F 51.8 °F 89% 29.76 in 3.0 mi SSW 18.4 mph 23.0 mph 0.01 in   Overcast
2:15 PM 55.0 °F 51.8 °F 89% 29.76 in 2.5 mi SSW 13.8 mph 24.2 mph N/A   Overcast
2:35 PM 55.4 °F 52.0 °F 88% 29.76 in 2.0 mi SSW 16.1 mph 21.9 mph N/A   Overcast
2:55 PM 55.4 °F 52.2 °F 89% 29.75 in 1.8 mi SSW 15.0 mph 21.9 mph N/A   Overcast
3:15 PM 55.8 °F 52.5 °F 89% 29.76 in 2.0 mi SSW 15.0 mph 21.9 mph N/A   Overcast
3:35 PM 55.9 °F 52.7 °F 89% 29.76 in 2.5 mi SSW 16.1 mph 23.0 mph 0.01 in   Overcast
3:55 PM 56.3 °F 53.1 °F 89% 29.76 in 3.0 mi SSW 15.0 mph 24.2 mph 0.01 in   Overcast
4:15 PM 56.7 °F 53.2 °F 88% 29.76 in 4.0 mi SSW 15.0 mph - N/A   Overcast
4:35 PM 57.2 °F 53.6 °F 88% 29.77 in 5.0 mi SW 13.8 mph 24.2 mph N/A   Overcast
4:55 PM 57.4 °F 53.6 °F 87% 29.76 in 7.0 mi SSW 11.5 mph - N/A   Overcast
5:15 PM 57.6 °F 53.6 °F 87% 29.77 in 7.0 mi SSW 12.7 mph 17.3 mph N/A   Overcast
5:35 PM 57.9 °F 53.6 °F 86% 29.77 in 10.0 mi SSW 12.7 mph 19.6 mph N/A   Overcast
5:55 PM 58.5 °F 53.8 °F 84% 29.77 in 10.0 mi SSW 13.8 mph 24.2 mph N/A   Overcast
6:15 PM 58.6 °F 53.8 °F 84% 29.77 in 10.0 mi SSW 13.8 mph 20.7 mph N/A   Overcast
6:35 PM 58.8 °F 54.0 °F 84% 29.78 in 10.0 mi SSW 13.8 mph - N/A   Overcast
6:55 PM 59.0 °F 54.0 °F 83% 29.78 in 10.0 mi SSW 12.7 mph 20.7 mph N/A   Overcast
7:15 PM 59.0 °F 54.1 °F 84% 29.78 in 10.0 mi SSW 13.8 mph 17.3 mph N/A   Overcast
7:35 PM 59.2 °F 54.3 °F 84% 29.78 in 10.0 mi SSW 12.7 mph 17.3 mph N/A   Overcast
7:55 PM 59.5 °F 54.5 °F 83% 29.78 in 10.0 mi SSW 13.8 mph 20.7 mph 0.01 in   Overcast
8:15 PM 59.5 °F 54.5 °F 83% 29.76 in 10.0 mi SSW 12.7 mph 21.9 mph N/A   Scattered Clouds
8:35 PM 59.9 °F 54.9 °F 83% 29.77 in 10.0 mi SW 17.3 mph - N/A   Mostly Cloudy
8:55 PM 59.9 °F 54.9 °F 83% 29.76 in 10.0 mi SSW 13.8 mph 20.7 mph N/A   Overcast
9:15 PM 59.9 °F 54.9 °F 83% 29.77 in 10.0 mi SW 13.8 mph 17.3 mph N/A   Overcast
9:35 PM 59.5 °F 54.9 °F 84% 29.76 in 7.0 mi SSW 12.7 mph - N/A Rain Rain
9:55 PM 59.4 °F 55.0 °F 86% 29.76 in 7.0 mi SSW 10.4 mph - N/A Rain Light Rain
10:15 PM 58.1 °F 54.1 °F 87% 29.77 in 3.0 mi West 11.5 mph 17.3 mph N/A Rain Rain
10:35 PM 56.3 °F 52.2 °F 86% 29.78 in 7.0 mi West 16.1 mph 21.9 mph N/A   Overcast
10:55 PM 54.7 °F 48.6 °F 80% 29.79 in 10.0 mi West 13.8 mph 21.9 mph N/A   Overcast
11:15 PM 53.8 °F 47.5 °F 79% 29.80 in 10.0 mi West 11.5 mph 18.4 mph N/A Rain Light Rain
11:35 PM 52.5 °F 47.1 °F 82% 29.78 in 7.0 mi West 9.2 mph - N/A Rain Light Rain
11:55 PM 51.4 °F 46.4 °F 83% 29.79 in 10.0 mi West 11.5 mph 18.4 mph N/A Rain Light Rain